This is the latest recevied weather packets stored in our database for station/object W1QED. If no packets are shown the sender has not sent any weather packets the latest 1 day(s).
| Time | Temp. | Humidity | Pressure | Rain* | Wind** | Luminosity | Snow |
|---|---|---|---|---|---|---|---|
| 1778053248 | 16.67° C | 57% | 1009 hPa | 0 mm | 0.45 m/s, 223° | - | - |
| 1778052948 | 16.67° C | 56% | 1009.1 hPa | 0 mm | 0.89 m/s, 162° | - | - |
| 1778052646 | 16.67° C | 56% | 1009 hPa | 0 mm | 1.34 m/s, 259° | - | - |
| 1778052407 | 16.67° C | 56% | 1009 hPa | 0 mm | 1.79 m/s, 192° | - | - |
| 1778052044 | 17.22° C | 56% | 1008.9 hPa | 0 mm | 1.34 m/s, 242° | - | - |
| 1778051742 | 17.22° C | 55% | 1009 hPa | 0 mm | 1.79 m/s, 213° | - | - |
| 1778051441 | 17.22° C | 55% | 1008.8 hPa | 0 mm | 1.79 m/s, 227° | - | - |
| 1778051142 | 17.22° C | 55% | 1008.7 hPa | 0 mm | 1.79 m/s, 236° | - | - |
| 1778050846 | 17.22° C | 55% | 1008.6 hPa | 0 mm | 2.24 m/s, 234° | - | - |
| 1778050538 | 17.22° C | 54% | 1008.7 hPa | 0 mm | 2.24 m/s, 230° | - | - |
| 1778050238 | 17.22° C | 54% | 1008.7 hPa | 0 mm | 1.79 m/s, 276° | - | - |
| 1778049945 | 17.22° C | 53% | 1008.5 hPa | 0 mm | 2.24 m/s, 227° | - | - |
| 1778049642 | 17.22° C | 53% | 1008.6 hPa | 0 mm | 2.24 m/s, 280° | - | - |
| 1778049334 | 17.22° C | 53% | 1008.5 hPa | 0 mm | 1.79 m/s, 257° | - | - |
| 1778049042 | 17.78° C | 53% | 1008.5 hPa | 0 mm | 1.34 m/s, 223° | - | - |
| 1778048732 | 17.78° C | 52% | 1008.4 hPa | 0 mm | 1.34 m/s, 204° | - | - |
| 1778048432 | 17.78° C | 52% | 1008.4 hPa | 0 mm | 2.24 m/s, 229° | - | - |
| 1778048131 | 17.78° C | 52% | 1008.4 hPa | 0 mm | 1.34 m/s, 243° | - | - |
| 1778047830 | 17.78° C | 52% | 1008.5 hPa | 0 mm | 1.79 m/s, 245° | - | - |
| 1778047529 | 17.78° C | 52% | 1008.4 hPa | 0 mm | 2.68 m/s, 182° | - | - |
| 1778047227 | 17.78° C | 51% | 1008.3 hPa | 0 mm | 3.13 m/s, 208° | - | - |
| 1778046926 | 17.78° C | 51% | 1008.4 hPa | 0 mm | 2.24 m/s, 222° | - | - |
| 1778046624 | 17.78° C | 51% | 1008.4 hPa | 0 mm | 2.24 m/s, 225° | - | - |
| 1778046336 | 17.78° C | 50% | 1008.4 hPa | 0 mm | 3.13 m/s, 174° | - | - |
| 1778046022 | 17.78° C | 50% | 1008.4 hPa | 0 mm | 1.79 m/s, 241° | - | - |
* Rain latest hour (hover to see other rain measurements)
** Current wind speed in m/s (hover to see current wind gust speed)